カタログに戻る

ATLAS 5 CENTAUR DEB

LostHEO
NORAD 43993·DEBRIS·🇺🇸 United States

打ち上げ Sep 17, 2014 から Cape Canaveral Space Force Station

Loading…

次のパス (今後24時間)

TLE

古いSource: Space-Track

元期: Nov 18, 2024, 00:59 UTC

1 43993U 14055AY  24323.04161689  .00000040  00000-0  00000-0 0  9996
2 43993  20.6334 144.9589 5186101 166.5197 215.7620  1.96030449 43775

AllMySatでATLAS 5 CENTAUR DEBをリアルタイム追跡

Download on the App Store